Temp
-14 -14 -14 -15 -15 -15 -15 -15 -15 -15 -15 -15 -16 -16 -16 -16 -16 -16 -16 -17 -18 -20 -22 -25 -27 -28 -28 -28 -28 -28 -28 -27
-14 -14 -15 -15 -15 -15 -15 -15 -15 -15 -15 -15 -16 -16 -16 -16 -16 -16 -17 -17 -19 -21 -25 -27 -28 -28 -28 -28 -29 -29 -29 -28
-14 -15 -15 -15 -15 -15 -15 -15 -15 -15 -15 -16 -16 -16 -17 -16 -16 -17 -17 -18 -20 -24 -26 -27 -28 -28 -28 -28 -29 -29 -29 -29
-15 -15 -15 -15 -15 -15 -15 -15 -15 -15 -15 -16 -16 -17 -17 -16 -17 -17 -17 -19 -22 -26 -27 -27 -27 -28 -28 -28 -28 -28 -28 -28
-15 -15 -15 -15 -15 -15 -15 -15 -15 -15 -15 -16 -16 -17 -16 -16 -17 -17 -18 -20 -24 -26 -26 -27 -27 -27 -28 -28 -28 -28 -28 -28
-15 -16 -15 -15 -15 -15 -15 -15 -15 -15 -16 -16 -16 -17 -16 -17 -17 -17 -19 -21 -25 -26 -26 -27 -27 -27 -27 -27 -27 -27 -27 -27
-16 -16 -16 -15 -15 -15 -15 -15 -15 -15 -15 -16 -17 -17 -17 -17 -17 -18 -19 -21 -25 -26 -26 -26 -27 -27 -27 -27 -27 -27 -27 -27
-16 -16 -16 -15 -15 -15 -15 -15 -15 -15 -16 -16 -17 -17 -17 -17 -17 -18 -19 -21 -25 -25 -26 -26 -26 -26 -26 -27 -26 -26 -26 -26
-16 -16 -15 -15 -15 -16 -15 -15 -15 -15 -16 -17 -17 -17 -17 -17 -18 -18 -19 -21 -25 -25 -26 -26 -26 -26 -26 -26 -26 -26 -25 -25
-16 -16 -15 -15 -16 -16 -15 -15 -15 -16 -16 -17 -17 -17 -17 -17 -18 -18 -19 -21 -24 -25 -25 -26 -26 -26 -26 -26 -25 -25 -25 -24
-16 -16 -15 -16 -16 -16 -15 -15 -15 -16 -17 -17 -17 -17 -18 -18 -18 -18 -19 -20 -24 -25 -25 -25 -25 -25 -25 -25 -25 -24 -24 -24
-16 -16 -16 -16 -16 -16 -16 -15 -15 -16 -17 -17 -18 -18 -18 -18 -18 -18 -19 -20 -23 -25 -25 -25 -25 -25 -25 -25 -25 -24 -24 -24
-16 -16 -16 -16 -16 -16 -16 -16 -16 -16 -17 -18 -18 -18 -18 -18 -18 -18 -19 -19 -21 -24 -25 -25 -25 -25 -25 -24 -24 -24 -24 -24
-16 -16 -16 -16 -16 -16 -16 -16 -16 -17 -18 -18 -18 -18 -18 -18 -18 -18 -19 -19 -20 -23 -25 -25 -25 -25 -24 -24 -24 -24 -24 -23
-17 -17 -17 -16 -16 -16 -16 -16 -16 -17 -18 -18 -18 -18 -18 -18 -18 -18 -19 -19 -20 -22 -24 -25 -25 -25 -24 -24 -24 -24 -24 -23
-17 -17 -17 -17 -16 -16 -16 -16 -17 -18 -18 -18 -19 -19 -19 -19 -18 -19 -19 -19 -20 -21 -23 -24 -25 -25 -25 -24 -24 -24 -23 -23
-17 -17 -17 -17 -17 -16 -16 -16 -17 -18 -19 -19 -19 -19 -19 -19 -19 -19 -19 -19 -19 -20 -21 -24 -24 -25 -24 -24 -24 -24 -23 -23
-17 -17 -17 -17 -17 -17 -17 -17 -17 -18 -19 -19 -19 -19 -19 -19 -19 -19 -19 -19 -19 -20 -21 -22 -24 -24 -25 -24 -24 -24 -23 -23
-17 -17 -17 -17 -17 -17 -17 -17 -18 -18 -18 -19 -19 -19 -19 -19 -19 -19 -19 -19 -19 -19 -20 -21 -22 -24 -24 -24 -24 -24 -23 -23
Height
5777 5773 5769 5764 5760 5756 5752 5747 5741 5733 5724 5713 5699 5685 5671 5657 5642 5626 5609 5589 5566 5542 5517 5499 5488 5482 5477 5473 5470 5466 5463 5463
5773 5770 5765 5761 5757 5753 5749 5744 5737 5728 5717 5705 5691 5677 5663 5648 5632 5614 5595 5573 5548 5523 5504 5493 5486 5479 5474 5469 5464 5459 5454 5452
5770 5766 5762 5758 5754 5751 5746 5740 5732 5722 5710 5697 5683 5670 5656 5640 5622 5604 5584 5560 5535 5513 5501 5493 5485 5478 5472 5466 5461 5457 5453 5449
5766 5763 5759 5755 5752 5748 5743 5737 5727 5716 5704 5691 5679 5667 5651 5634 5615 5596 5574 5550 5525 5511 5502 5494 5485 5478 5472 5467 5462 5458 5454 5451
5763 5759 5755 5752 5749 5745 5740 5732 5722 5710 5699 5686 5676 5662 5645 5627 5609 5590 5568 5543 5523 5513 5504 5495 5487 5481 5474 5469 5464 5460 5457 5455
5760 5757 5753 5750 5747 5742 5736 5727 5717 5706 5693 5684 5672 5657 5640 5623 5606 5587 5564 5541 5524 5515 5506 5497 5489 5483 5477 5472 5468 5464 5461 5460
5757 5754 5751 5748 5744 5740 5732 5723 5713 5702 5691 5681 5669 5654 5638 5621 5604 5585 5564 5541 5526 5518 5509 5500 5492 5486 5481 5476 5472 5469 5467 5466
5755 5753 5749 5746 5742 5736 5729 5720 5710 5699 5689 5679 5667 5651 5636 5619 5603 5585 5564 5543 5529 5521 5512 5503 5496 5490 5485 5481 5477 5474 5473 5473
5753 5750 5746 5744 5739 5733 5725 5717 5708 5697 5688 5678 5664 5650 5635 5618 5602 5585 5565 5543 5530 5522 5514 5506 5499 5494 5489 5486 5483 5481 5480 5481
5751 5747 5745 5741 5736 5731 5723 5714 5706 5696 5688 5676 5663 5649 5634 5619 5602 5586 5566 5545 5532 5524 5517 5510 5503 5499 5495 5491 5489 5487 5488 5488
5748 5746 5743 5738 5734 5728 5721 5712 5705 5696 5686 5674 5662 5649 5635 5620 5604 5587 5569 5549 5535 5527 5521 5514 5508 5504 5500 5497 5495 5494 5495 5495
5746 5743 5739 5735 5731 5725 5719 5711 5703 5696 5685 5674 5662 5649 5635 5621 5607 5590 5573 5554 5538 5531 5525 5519 5513 5509 5506 5504 5502 5500 5500 5501
5744 5739 5737 5732 5729 5723 5717 5711 5703 5694 5684 5673 5662 5650 5637 5624 5609 5594 5577 5560 5544 5534 5529 5523 5517 5514 5511 5509 5507 5506 5506 5506
5740 5737 5734 5730 5726 5721 5716 5710 5702 5693 5683 5673 5662 5651 5639 5626 5612 5598 5582 5565 5549 5537 5532 5527 5521 5517 5515 5513 5512 5511 5510 5511
5738 5734 5731 5728 5725 5720 5715 5708 5700 5691 5682 5673 5663 5653 5640 5629 5615 5601 5587 5572 5556 5542 5535 5531 5526 5521 5518 5517 5515 5514 5514 5514
5735 5732 5729 5727 5723 5718 5713 5706 5699 5690 5682 5673 5664 5654 5642 5631 5618 5605 5592 5579 5564 5550 5539 5534 5530 5525 5522 5520 5518 5518 5517 5518
5733 5730 5728 5725 5722 5716 5711 5704 5697 5689 5682 5674 5665 5655 5644 5633 5621 5609 5597 5585 5572 5558 5546 5537 5534 5530 5526 5523 5522 5520 5521 5521
5731 5729 5726 5723 5719 5713 5708 5702 5696 5689 5682 5674 5665 5656 5646 5635 5624 5613 5602 5591 5579 5567 5554 5543 5537 5534 5531 5528 5526 5525 5524 5525
5729 5727 5724 5721 5716 5711 5706 5700 5694 5688 5682 5674 5666 5657 5647 5637 5627 5617 5607 5597 5586 5575 5563 5552 5543 5538 5535 5532 5530 5529 5528 5528
Wind_Speed
20 23 26 28 27 24 26 32 37 43 47 52 56 61 64 69 71 75 79 86 92 97 82 56 40 28 28 28 28 30 34 35
21 23 26 27 23 22 28 34 38 45 48 55 60 62 67 70 73 78 84 90 96 87 54 35 30 30 29 25 23 23 22 18
20 23 25 23 20 23 29 34 40 46 51 57 61 64 69 70 74 80 86 92 94 61 37 33 31 29 26 23 18 17 11 9
21 24 24 20 19 25 30 35 42 46 52 58 62 64 69 70 75 81 87 93 76 43 37 34 31 27 23 17 14 11 10 4
23 25 22 17 20 25 31 37 42 47 53 59 63 66 69 71 75 81 87 90 59 39 37 34 29 24 21 17 13 10 5 1
22 23 21 17 21 26 31 38 44 49 54 59 63 65 70 70 74 80 85 82 47 38 36 33 27 23 19 16 12 8 4 1
22 24 20 17 22 27 32 39 45 49 54 58 62 65 69 70 73 78 83 74 41 37 35 32 27 22 19 16 13 9 4 4
21 22 18 17 22 27 32 39 46 49 54 57 60 64 68 69 72 76 80 71 38 36 34 31 26 20 17 15 12 10 6 8
21 22 17 17 23 27 33 39 46 50 52 56 60 63 66 67 70 74 78 71 39 35 34 31 26 20 15 14 12 10 10 11
21 22 17 18 23 26 32 38 45 48 50 55 60 62 65 65 68 72 76 71 39 33 34 32 26 19 13 14 12 12 12 11
21 21 17 20 22 27 31 37 43 46 49 53 58 61 62 64 65 69 73 71 42 31 32 31 25 18 14 12 14 11 9 9
21 21 19 20 22 26 32 37 43 45 48 52 56 60 61 63 63 65 70 71 50 30 30 30 25 18 14 12 12 12 11 7
20 21 20 21 22 25 30 35 40 44 47 50 54 59 59 61 60 62 66 69 59 33 28 29 26 18 14 12 10 10 11 8
20 21 20 21 22 24 30 34 38 42 45 48 52 57 58 58 57 58 62 66 64 40 28 26 25 19 12 10 9 8 9 8
20 21 20 22 22 24 29 33 37 41 44 47 50 54 57 55 55 55 57 62 64 54 30 25 24 21 16 10 8 8 9 9
19 21 20 21 21 23 28 31 35 39 42 45 48 53 55 54 54 52 54 57 61 60 41 26 23 22 18 14 9 10 9 8
19 20 20 19 20 22 26 29 34 37 40 42 47 52 53 52 52 50 50 53 57 59 54 32 24 21 18 15 11 7 8 7
19 20 19 19 19 21 24 28 32 36 39 41 45 49 52 51 50 49 48 49 53 56 57 48 26 22 19 16 13 9 4 4
19 20 17 17 17 19 22 26 31 34 37 39 43 48 50 50 48 48 45 46 48 52 54 54 41 22 20 17 16 13 10 5
Wind_Direction
319 322 325 327 335 337 339 339 339 333 334 334 337 340 338 335 334 332 332 331 329 327 327 325 324 326 317 309 301 290 277 259
320 323 327 332 338 337 340 341 335 334 337 341 343 343 340 338 336 336 336 334 333 335 336 341 338 328 322 319 311 301 294 277
320 324 329 337 336 339 340 339 333 338 342 345 347 344 341 341 340 340 339 337 339 342 351 346 338 334 333 330 326 313 306 280
323 326 335 338 337 338 339 336 338 344 348 350 348 344 343 343 343 343 342 341 345 353 353 349 344 343 341 339 333 326 319 284
325 333 338 336 335 333 335 338 344 348 351 352 348 346 346 346 347 346 346 346 350 356 354 352 349 350 347 348 343 340 325 234
325 336 334 331 332 334 339 345 348 351 354 351 348 348 349 349 349 349 349 351 354 356 356 354 353 354 352 351 352 352 354 131
329 336 330 327 329 329 342 349 352 353 355 350 349 350 351 351 352 353 352 355 356 359 357 357 357 359 358 357 356 5 25 102
328 331 323 320 324 337 345 351 354 355 354 350 351 352 353 352 354 355 356 358 359 2 2 2 2 3 3 2 7 22 54 101
328 329 322 318 323 340 347 353 356 355 352 350 353 354 354 354 356 358 359 1 1 5 5 7 6 9 12 12 19 48 72 94
328 328 313 317 326 342 347 354 355 354 351 352 354 355 355 356 358 360 1 5 3 7 7 9 11 14 26 24 33 63 69 89
327 320 309 316 330 343 348 354 355 352 351 353 355 356 356 358 359 1 4 8 8 7 9 12 16 19 33 38 44 66 68 83
322 321 313 317 332 344 351 353 354 350 352 354 356 358 358 359 1 3 5 10 12 10 10 14 20 24 36 53 48 47 57 86
321 322 314 319 333 344 348 352 351 349 353 355 357 358 359 360 2 6 7 11 15 14 13 13 21 27 38 48 49 53 57 73
321 322 316 319 335 344 347 349 349 349 353 356 358 358 0 0 3 7 9 11 16 18 16 15 20 26 31 41 37 40 44 64
319 323 319 322 338 345 348 348 348 349 354 357 359 359 0 1 4 8 11 13 16 21 19 18 20 26 31 36 40 51 62 69
322 325 322 328 341 347 348 348 346 350 354 359 359 360 1 3 5 9 11 15 17 20 23 22 23 25 24 27 33 51 71 74
324 327 324 332 344 348 346 347 347 351 356 0 360 1 1 4 6 9 12 16 19 20 23 23 23 25 28 26 29 30 44 51
330 331 329 339 343 346 346 345 345 352 358 1 1 2 2 4 7 10 14 16 21 22 23 24 22 23 29 30 28 28 33 66
335 333 333 335 338 344 343 343 346 355 0 1 2 3 2 5 8 11 14 17 21 24 24 26 27 22 25 31 31 28 24 35